Location: ???? ?????????
(31.1304°N, 31.7111°E)
Time: 14:59:19
(UTC+00:00)

SR - Visible Passes

Search period start: 27 February 2021 00:00
Search period end: 09 March 2021 00:00
Orbit: 573 x 882 km, 66.7° (Epoch: 26 February)

Date Brightness Start Highest point End Pass type
(mag) Time Alt. Az. Time Alt. Az. Time Alt. Az.
27 Feb ? 02:59:27 10° NNW 03:05:11 47° ENE 03:10:41 10° SE visible
27 Feb ? 17:23:43 10° SSW 17:28:35 89° SE 17:32:22 20° NNE visible
27 Feb ? 19:10:20 10° WNW 19:11:32 11° NW 19:11:56 11° NW visible
28 Feb ? 02:10:22 10° N 02:15:07 24° NE 02:19:46 10° ESE visible
28 Feb ? 03:51:50 10° NW 03:57:24 44° WSW 04:02:44 10° S visible
28 Feb ? 16:34:30 10° S 16:39:00 38° ESE 16:43:54 10° NE visible
28 Feb ? 18:17:21 10° WSW 18:21:13 22° NW 18:25:21 10° N visible
01 Mar ? 01:22:19 10° NNE 01:24:51 13° NE 01:27:21 10° ENE visible
01 Mar ? 03:01:48 10° NNW 03:07:45 89° ENE 03:13:26 10° SSE visible
01 Mar ? 17:26:25 10° SW 17:31:09 44° WNW 17:36:20 10° NNE visible
02 Mar ? 02:12:15 10° NNW 02:17:54 44° ENE 02:23:20 10° SE visible
02 Mar ? 16:36:26 10° SSW 16:41:19 83° ESE 16:46:44 10° NNE visible
02 Mar ? 18:22:22 10° WNW 18:24:11 12° NW 18:26:04 10° NNW visible
03 Mar ? 01:23:41 12° N 01:27:50 23° NE 01:32:19 10° ESE visible
03 Mar ? 03:04:31 10° NW 03:10:09 47° WSW 03:15:32 10° S visible
03 Mar ? 17:29:52 10° WSW 17:33:54 23° NW 17:38:13 10° N visible
04 Mar ? 00:37:27 12° NE 00:37:32 12° NE 00:39:36 10° ENE visible
04 Mar ? 02:17:00 26° NNW 02:20:30 84° ENE 02:26:10 10° SSE visible
04 Mar ? 16:39:03 10° SW 16:43:51 48° WNW 16:49:07 10° NNE visible
05 Mar ? 01:31:03 40° ENE 01:31:03 40° ENE 01:35:58 10° SE visible
05 Mar ? 03:10:38 21° W 03:12:24 24° WSW 03:16:48 10° SSW visible
05 Mar ? 17:34:34 10° WNW 17:36:50 13° NW 17:39:11 10° NNW visible
06 Mar ? 02:24:41 37° SSW 02:24:41 37° SSW 02:28:19 10° S visible
06 Mar ? 16:42:23 10° WSW 16:46:34 25° NW 16:51:04 10° N visible
07 Mar ? 01:38:37 11° SSE 01:38:37 11° SSE 01:38:52 10° SSE visible
08 Mar ? 16:46:52 10° W 16:49:30 14° NW 16:52:14 10° NNW visible
